EW5790 Weather Reports


Display with metric or nautical units.
time (UTC)temp
F
wind
direction
speed
MPH
gust
MPH
rain 1hr
in
rain 24hr
in
rain mn
in
humidity
%
barometer
mb
20260504201528 79 271 0.0 0.0 0.00 0.00 0.00 43 1010.0
20260504200025 79 276 0.0 0.0 0.00 0.00 0.00 42 1010.2
20260504194521 80 24 0.0 0.0 0.00 0.00 0.00 48 1010.6
20260504193016 79 241 0.0 0.0 0.00 0.00 0.00 45 1010.8
20260504191511 79 216 0.0 0.0 0.00 0.00 0.00 45 1010.8
20260504190006 78 289 0.0 0.0 0.00 0.00 0.00 48 1011.2
20260504184502 78 135 0.0 0.0 0.00 0.00 0.00 46 1011.2
20260504183104 77 146 0.0 0.0 0.00 0.00 0.00 48 1011.4
20260504181553 77 278 0.0 0.0 0.00 0.00 0.00 50 1011.7
20260504180058 76 196 0.0 0.0 0.00 0.00 0.00 54 1011.7
20260504174546 75 302 0.0 0.0 0.00 0.00 0.00 48 1012.0
20260504173041 75 283 0.0 0.0 0.00 0.00 0.00 53 1012.0
20260504171537 74 5 0.0 0.0 0.00 0.00 0.00 53 1012.3
20260504081559 45 144 0.0 0.0 0.00 0.00 0.00 2 1015.1
20260504044557 42 128 0.0 0.0 0.00 0.00 0.00 23 1016.1
20260504043058 43 128 0.0 0.0 0.00 0.00 0.00 31 1016.1
20260504041549 44 128 0.0 0.0 0.00 0.00 0.00 36 1016.1
20260504040048 45 128 0.0 0.0 0.00 0.00 0.00 42 1016.2
20260504034550 45 128 0.0 0.0 0.00 0.00 0.00 47 1016.4
20260504033037 45 128 0.0 0.0 0.00 0.00 0.00 54 1016.6
20260504031534 46 128 0.0 0.0 0.00 0.00 0.00 61 1016.6
20260504030034 47 128 0.0 0.0 0.00 0.00 0.00 61 1016.4
20260504024524 47 161 0.0 0.0 0.00 0.00 0.00 63 1016.3
20260504023019 48 164 0.0 0.0 0.00 0.00 0.00 65 1016.2
20260504021515 48 164 0.0 0.0 0.00 0.00 0.00 65 1016.0
20260504020011 49 254 0.0 0.0 0.00 0.00 0.00 66 1015.9
20260504014506 49 254 0.0 0.0 0.00 0.00 0.00 67 1015.7
20260504013002 50 254 0.0 0.0 0.00 0.00 0.00 68 1015.7
20260504011558 52 254 0.0 0.0 0.00 0.00 0.00 68 1015.6
20260504010055 53 254 0.0 0.0 0.00 0.00 0.00 66 1015.6
20260504004551 55 254 0.0 0.0 0.00 0.00 0.00 63 1015.5
20260504003045 58 254 0.0 0.0 0.00 0.00 0.00 57 1015.3
20260504001543 60 254 0.0 0.0 0.00 0.00 0.00 51 1015.3
20260504000036 61 258 0.0 0.0 0.00 0.00 0.00 44 1015.5
20260503234531 62 236 0.0 0.0 0.00 0.00 0.00 45 1015.7
20260503233027 63 256 0.0 0.0 0.00 0.00 0.00 46 1015.6
20260503231525 63 229 0.0 0.0 0.00 0.00 0.00 45 1015.9
20260503230034 63 259 0.0 0.0 0.00 0.00 0.00 43 1016.4
20260503224514 64 296 0.0 0.0 0.00 0.00 0.00 42 1016.6
20260503223011 64 316 0.0 0.0 0.00 0.00 0.00 40 1016.4
20260503221504 64 273 0.0 0.0 0.00 0.00 0.00 40 1016.5
20260503220101 63 270 0.0 0.0 0.00 0.00 0.00 41 1016.7
20260503214556 64 253 0.0 0.0 0.00 0.00 0.00 41 1016.8
20260503213052 64 241 0.0 0.0 0.00 0.00 0.00 44 1016.9
20260503211550 64 169 0.0 0.0 0.00 0.00 0.00 43 1017.3
20260503210043 64 332 0.0 0.0 0.00 0.00 0.00 43 1017.7
20260503204541 64 275 0.0 0.0 0.00 0.00 0.00 42 1018.1
20260503203038 65 332 0.0 0.0 0.00 0.00 0.00 43 1018.0